KC0VVH Weather Reports


Display with metric or nautical units.
time (UTC)temp
F
wind
direction
speed
MPH
gust
MPH
rain 1hr
in
rain 24hr
in
rain mn
in
humidity
%
barometer
mb
20260509040036 75 262 2.0 11.0 0.00 0.00 0.00 15 1017.9
20260509035415 75 247 3.0 11.0 0.00 0.00 0.00 14 1017.9
20260509034515 76 268 1.0 10.0 0.00 0.00 0.00 14 1017.9
20260509033603 76 247 1.0 15.0 0.00 0.00 0.00 14 1017.9
20260509032715 76 240 2.0 15.0 0.00 0.00 0.00 14 1017.9
20260509031815 76 241 1.0 6.0 0.00 0.00 0.00 14 1017.9
20260509030903 76 232 1.0 8.0 0.00 0.00 0.00 14 1017.9
20260509030015 77 231 3.0 16.0 0.00 0.00 0.00 14 1017.9
20260509025403 76 224 1.0 9.0 0.00 0.00 0.00 14 1017.9
20260509024516 76 216 1.0 6.0 0.00 0.00 0.00 14 1017.9
20260509023636 77 222 1.0 6.0 0.00 0.00 0.00 14 1017.9
20260509022715 77 218 2.0 10.0 0.00 0.00 0.00 14 1017.9
20260509021803 77 222 3.0 11.0 0.00 0.00 0.00 14 1017.9
20260509020915 78 228 2.0 10.0 0.00 0.00 0.00 13 1017.9
20260509020015 78 238 1.0 8.0 0.00 0.00 0.00 13 1017.9
20260509015415 78 0 0.0 0.0 0.00 0.00 0.00 14 1017.9
20260509014515 78 225 1.0 5.0 0.00 0.00 0.00 13 1017.9
20260509013615 79 197 1.0 7.0 0.00 0.00 0.00 13 1017.9
20260509012703 79 0 0.0 0.0 0.00 0.00 0.00 13 1017.9
20260509011815 79 0 0.0 1.0 0.00 0.00 0.00 13 1017.9
20260509010903 80 0 0.0 0.0 0.00 0.00 0.00 12 1017.9
20260509010024 80 296 1.0 9.0 0.00 0.00 0.00 12 1017.9
20260509005403 80 294 1.0 9.0 0.00 0.00 0.00 12 1017.9
20260509004503 81 266 1.0 7.0 0.00 0.00 0.00 13 1017.9
20260509003615 81 227 2.0 11.0 0.00 0.00 0.00 13 1017.9
20260509002715 82 227 0.0 8.0 0.00 0.00 0.00 12 1017.9
20260509001815 82 224 3.0 22.0 0.00 0.00 0.00 13 1017.9
20260509000936 82 247 2.0 12.0 0.00 0.00 0.00 12 1017.9
20260509000015 84 359 1.0 8.0 0.00 0.00 0.00 11 1017.9
20260508235415 84 47 0.0 4.0 0.00 0.00 0.00 12 1017.9
20260508234515 84 35 1.0 5.0 0.00 0.00 0.00 12 1017.9
20260508233615 84 15 3.0 11.0 0.00 0.00 0.00 11 1017.9
20260508232715 84 11 1.0 9.0 0.00 0.00 0.00 12 1017.9
20260508231836 85 14 2.0 9.0 0.00 0.00 0.00 11 1017.9
20260508230915 85 16 3.0 10.0 0.00 0.00 0.00 11 1017.9
20260508230015 85 326 1.0 6.0 0.00 0.00 0.00 11 1017.9
20260508225415 85 8 1.0 6.0 0.00 0.00 0.00 10 1017.9
20260508224536 85 348 1.0 6.0 0.00 0.00 0.00 11 1017.9
20260508223615 84 354 1.0 8.0 0.00 0.00 0.00 11 1017.9
20260508222703 84 305 2.0 11.0 0.00 0.00 0.00 11 1017.9
20260508221815 84 271 1.0 8.0 0.00 0.00 0.00 11 1017.9
20260508220915 83 326 2.0 12.0 0.00 0.00 0.00 11 1017.9
20260508220015 83 346 5.0 14.0 0.00 0.00 0.00 11 1017.9
20260508215424 82 357 6.0 14.0 0.00 0.00 0.00 12 1017.9
20260508214515 80 354 3.0 13.0 0.00 0.00 0.00 13 1017.9
20260508213615 79 346 1.0 7.0 0.00 0.00 0.00 13 1017.9
20260508212715 78 279 1.0 10.0 0.00 0.00 0.00 13 1017.9
20260508211815 78 309 2.0 10.0 0.00 0.00 0.00 13 1017.9
20260508210915 79 331 3.0 12.0 0.00 0.00 0.00 13 1017.9
20260508210015 80 287 2.0 9.0 0.00 0.00 0.00 13 1017.9
20260508205415 81 308 3.0 9.0 0.00 0.00 0.00 13 1017.9
20260508204503 82 360 4.0 11.0 0.00 0.00 0.00 12 1017.9
20260508203636 83 10 4.0 14.0 0.00 0.00 0.00 12 1017.9
20260508202715 82 333 3.0 14.0 0.00 0.00 0.00 12 1017.9
20260508201815 82 24 5.0 13.0 0.00 0.00 0.00 15 1017.9
20260508200936 82 35 5.0 13.0 0.00 0.00 0.00 14 1017.9
20260508200036 81 20 5.0 12.0 0.00 0.00 0.00 15 1017.9
20260508195403 81 11 5.0 13.0 0.00 0.00 0.00 15 1017.9
20260508194515 80 8 4.0 14.0 0.00 0.00 0.00 15 1017.9
20260508193615 80 54 4.0 10.0 0.00 0.00 0.00 17 1017.9
20260508192715 81 19 4.0 11.0 0.00 0.00 0.00 16 1017.9
20260508191815 80 9 4.0 12.0 0.00 0.00 0.00 17 1017.9
20260508190936 79 32 5.0 12.0 0.00 0.00 0.00 18 1017.9
20260508190015 78 18 2.0 8.0 0.00 0.00 0.00 20 1017.9
20260508185415 78 12 3.0 8.0 0.00 0.00 0.00 20 1017.9
20260508184515 78 51 3.0 6.0 0.00 0.00 0.00 22 1017.9
20260508183615 76 54 3.0 6.0 0.00 0.00 0.00 23 1017.9
20260508182736 75 39 2.0 6.0 0.00 0.00 0.00 23 1017.9
20260508181815 76 13 3.0 9.0 0.00 0.00 0.00 21 1017.9
20260508180915 77 31 4.0 9.0 0.00 0.00 0.00 22 1017.9
20260508180036 76 18 3.0 8.0 0.00 0.00 0.00 22 1017.9
20260508175415 75 29 3.0 8.0 0.00 0.00 0.00 22 1017.9
20260508174515 74 37 2.0 8.0 0.00 0.00 0.00 21 1017.9
20260508173615 74 39 2.0 8.0 0.00 0.00 0.00 21 1017.9
20260508172715 74 61 2.0 8.0 0.00 0.00 0.00 22 1017.9
20260508171815 74 61 3.0 9.0 0.00 0.00 0.00 22 1017.9
20260508170915 73 63 3.0 9.0 0.00 0.00 0.00 22 1017.9
20260508170015 73 66 2.0 8.0 0.00 0.00 0.00 21 1017.9
20260508165415 72 69 1.0 8.0 0.00 0.00 0.00 24 1017.9
20260508164515 71 71 2.0 6.0 0.00 0.00 0.00 23 1017.9
20260508163603 71 71 1.0 6.0 0.00 0.00 0.00 26 1017.9
20260508162703 70 71 1.0 6.0 0.00 0.00 0.00 27 1017.9
20260508161815 69 71 0.0 4.0 0.00 0.00 0.00 28 1017.9
20260508160915 68 69 1.0 5.0 0.00 0.00 0.00 28 1017.9
20260508160015 67 68 1.0 4.0 0.00 0.00 0.00 29 1017.9
20260508155415 67 68 1.0 4.0 0.00 0.00 0.00 30 1017.9
20260508154515 66 68 2.0 5.0 0.00 0.00 0.00 30 1017.9
20260508153636 65 70 3.0 8.0 0.00 0.00 0.00 31 1017.9
20260508152715 64 72 2.0 7.0 0.00 0.00 0.00 31 1017.9
20260508151815 63 118 1.0 8.0 0.00 0.00 0.00 32 1017.9
20260508150915 63 105 2.0 6.0 0.00 0.00 0.00 32 1017.9
20260508150003 63 66 4.0 11.0 0.00 0.00 0.00 33 1017.9
20260508145403 63 62 2.0 6.0 0.00 0.00 0.00 34 1017.9
20260508144536 62 48 4.0 10.0 0.00 0.00 0.00 34 1017.9
20260508143603 62 50 4.0 9.0 0.00 0.00 0.00 35 1017.9
20260508142715 61 49 2.0 9.0 0.00 0.00 0.00 36 1017.9
20260508141803 59 180 0.0 6.0 0.00 0.00 0.00 38 1017.9
20260508140915 58 60 0.0 3.0 0.00 0.00 0.00 39 1017.9
20260508140015 58 60 2.0 5.0 0.00 0.00 0.00 43 1017.9
20260508135415 57 60 2.0 5.0 0.00 0.00 0.00 43 1017.9
20260508134515 57 48 3.0 7.0 0.00 0.00 0.00 41 1017.9
20260508133615 58 292 0.0 3.0 0.00 0.00 0.00 40 1017.9
20260508132715 57 0 0.0 0.0 0.00 0.00 0.00 42 1017.9
20260508131815 56 0 0.0 0.0 0.00 0.00 0.00 43 1017.9
20260508130903 54 0 0.0 0.0 0.00 0.00 0.00 45 1017.9
20260508130015 53 0 0.0 0.0 0.00 0.00 0.00 44 1017.9
20260508125424 52 0 0.0 0.0 0.00 0.00 0.00 44 1017.9
20260508124503 50 284 0.0 2.0 0.00 0.00 0.00 45 1017.9
20260508123603 49 0 0.0 0.0 0.00 0.00 0.00 47 1017.9
20260508122715 47 0 0.0 0.0 0.00 0.00 0.00 49 1017.9
20260508121815 48 0 0.0 0.0 0.00 0.00 0.00 50 1017.9
20260508120903 48 284 0.0 2.0 0.00 0.00 0.00 49 1017.9
20260508120036 47 0 0.0 0.0 0.00 0.00 0.00 52 1017.9
20260508115403 47 0 0.0 0.0 0.00 0.00 0.00 56 1017.9
20260508114515 47 0 0.0 0.0 0.00 0.00 0.00 57 1017.9
20260508113603 48 0 0.0 0.0 0.00 0.00 0.00 56 1017.9
20260508112703 48 0 0.0 0.0 0.00 0.00 0.00 56 1017.9
20260508111803 49 0 0.0 0.0 0.00 0.00 0.00 57 1017.9
20260508110915 49 0 0.0 0.0 0.00 0.00 0.00 54 1017.9
20260508110015 49 0 0.0 0.0 0.00 0.00 0.00 48 1017.9
20260508105424 50 0 0.0 0.0 0.00 0.00 0.00 48 1017.9
20260508104503 50 0 0.0 0.0 0.00 0.00 0.00 47 1017.9
20260508103615 51 0 0.0 0.0 0.00 0.00 0.00 46 1017.9
20260508102703 52 0 0.0 0.0 0.00 0.00 0.00 45 1017.9
20260508101815 52 0 0.0 0.0 0.00 0.00 0.00 44 1017.9
20260508100903 53 0 0.0 0.0 0.00 0.00 0.00 42 1017.9
20260508100015 52 284 0.0 1.0 0.00 0.00 0.00 44 1017.9
20260508095415 52 0 0.0 0.0 0.00 0.00 0.00 44 1017.9
20260508094515 52 0 0.0 0.0 0.00 0.00 0.00 42 1017.9
20260508093615 52 0 0.0 0.0 0.00 0.00 0.00 42 1017.9
20260508092736 52 0 0.0 0.0 0.00 0.00 0.00 43 1017.9
20260508091815 52 0 0.0 0.0 0.00 0.00 0.00 43 1017.9
20260508090924 53 0 0.0 0.0 0.00 0.00 0.00 42 1017.9
20260508090015 54 0 0.0 0.0 0.00 0.00 0.00 41 1017.9
20260508085415 54 0 0.0 0.0 0.00 0.00 0.00 40 1017.9
20260508084515 54 0 0.0 0.0 0.00 0.00 0.00 39 1017.9
20260508083615 55 0 0.0 0.0 0.00 0.00 0.00 37 1017.9
20260508082715 56 0 0.0 0.0 0.00 0.00 0.00 34 1017.9
20260508081803 57 0 0.0 0.0 0.00 0.00 0.00 33 1017.9
20260508080915 57 286 0.0 3.0 0.00 0.00 0.00 33 1017.9
20260508080036 57 286 0.0 3.0 0.00 0.00 0.00 32 1017.9
20260508075415 57 0 0.0 0.0 0.00 0.00 0.00 33 1017.9
20260508074515 58 0 0.0 0.0 0.00 0.00 0.00 32 1017.9
20260508073615 58 294 1.0 4.0 0.00 0.00 0.00 32 1017.9
20260508072703 58 0 0.0 0.0 0.00 0.00 0.00 33 1017.9
20260508071836 59 0 0.0 0.0 0.00 0.00 0.00 32 1017.9
20260508070915 60 0 0.0 0.0 0.00 0.00 0.00 30 1017.9
20260508070003 61 300 0.0 4.0 0.00 0.00 0.00 30 1017.9
20260508065436 61 301 0.0 4.0 0.00 0.00 0.00 28 1017.9
20260508064503 60 305 0.0 2.0 0.00 0.00 0.00 29 1017.9
20260508063636 61 0 0.0 0.0 0.00 0.00 0.00 30 1017.9
20260508062715 62 330 0.0 4.0 0.00 0.00 0.00 30 1017.9
20260508061815 63 348 1.0 7.0 0.00 0.00 0.00 30 1017.9
20260508060924 64 288 1.0 7.0 0.00 0.00 0.00 27 1017.9
20260508060003 65 233 1.0 5.0 0.00 0.00 0.00 25 1017.9
20260508055415 65 240 3.0 10.0 0.00 0.00 0.00 24 1017.9
20260508054503 65 249 4.0 9.0 0.00 0.00 0.00 24 1017.9
20260508053615 66 245 3.0 8.0 0.00 0.00 0.00 24 1017.9
20260508052715 66 238 1.0 5.0 0.00 0.00 0.00 24 1017.9
20260508051803 66 239 1.0 10.0 0.00 0.00 0.00 24 1017.9
20260508050915 66 237 2.0 9.0 0.00 0.00 0.00 24 1017.9
20260508050015 66 234 2.0 9.0 0.00 0.00 0.00 24 1017.9
20260508045415 66 222 1.0 7.0 0.00 0.00 0.00 25 1017.9
20260508044515 66 213 2.0 6.0 0.00 0.00 0.00 25 1017.9
20260508043615 65 213 1.0 4.0 0.00 0.00 0.00 25 1017.9
20260508042736 65 213 1.0 5.0 0.00 0.00 0.00 25 1017.9
20260508041824 65 0 0.0 0.0 0.00 0.00 0.00 26 1017.9
20260508040915 65 212 0.0 2.0 0.00 0.00 0.00 25 1017.9